Weather History for Cincinnati, OH

Change the Weather History Date:

Saturday, March 2, 2013

  Actual Average Record
Temperature  
Mean Temperature 29 °F -  
Max Temperature 30 °F 52 °F 78 °F (1992)
Min Temperature 28 °F 32 °F 1 °F (1980)
Degree Days  
Heating Degree Days 36    
Moisture  
Dew Point 21 °F    
Average Humidity 71    
Maximum Humidity 86    
Minimum Humidity 64    
Precipitation  
Precipitation 0.00 in - - ()
Sea Level Pressure  
Sea Level Pressure 30.09 in    
Wind  
Wind Speed 8 mph (NNW)    
Max Wind Speed 14 mph    
Max Gust Speed 20 mph    
Visibility 9 miles    
Events Snow    
Averages and records for this station are not official NWS values.
T = Trace of Precipitation, MM = Missing Value Source: NWS Daily Summary

Daily Weather History Graph

Daily Weather History Graph

Search for Another Location

Airport:

Trip Planner

Search our weather history database for the weather conditions in past years. The results will help you decide how hot, cold, wet, or windy it might be!

Date:

Astronomy

Mar. 02, 2013 Rise Set
Actual Time 7:08 AM EST 6:31 PM EST
Civil Twilight 6:41 AM EST 6:58 PM EST
Nautical Twilight 6:10 AM EST 7:29 PM EST
Astronomical Twilight 5:39 AM EST 8:00 PM EST
Moon No Moon Rise 9:38 AM EST (3/2)
Length of Visible Light 12h 16m
Length of Day
11h 23m
Waning Gibbous, 74% of the Moon is Illuminated
Mar 2
Waning Gibbous
Mar 4
Last Quarter
Mar 11
New
Mar 19
First Quarter
Mar 27
Full

Hourly Weather History & Observations

Time (EST) Temp. Windchill Dew Point Humidity Pressure Visibility Wind Dir Wind Speed Gust Speed Precip Events Conditions
12:53 AM 30.0 °F 21.1 °F 21.9 °F 72% 30.07 in 10.0 mi North 10.4 mph - N/A   Overcast
1:53 AM 30.0 °F 22.4 °F 21.9 °F 72% 30.07 in 10.0 mi North 8.1 mph - N/A   Overcast
2:17 AM 30.2 °F 23.4 °F 21.2 °F 69% 30.06 in 10.0 mi North 6.9 mph - N/A   Overcast
2:53 AM 30.0 °F 21.1 °F 21.9 °F 72% 30.06 in 10.0 mi North 10.4 mph - N/A   Overcast
3:53 AM 30.2 °F 21.9 °F 21.2 °F 69% 30.04 in 10.0 mi North 9.2 mph - N/A   Overcast
4:53 AM 28.9 °F 20.4 °F 21.0 °F 72% 30.06 in 10.0 mi NNE 9.2 mph - N/A   Overcast
5:53 AM 28.9 °F 20.4 °F 19.9 °F 69% 30.06 in 10.0 mi North 9.2 mph - N/A   Overcast
6:53 AM 28.4 °F 21.2 °F 19.4 °F 69% 30.06 in 10.0 mi North 6.9 mph - N/A   Overcast
7:53 AM 28.0 °F 18.6 °F 21.0 °F 75% 30.09 in 10.0 mi North 10.4 mph - N/A   Overcast
8:53 AM 28.0 °F 20.0 °F 19.9 °F 72% 30.10 in 9.0 mi NNW 8.1 mph - 0.00 in   Overcast
9:53 AM 28.0 °F 19.3 °F 21.0 °F 75% 30.11 in 6.0 mi North 9.2 mph - 0.00 in   Haze
10:08 AM 28.4 °F 21.2 °F 23.0 °F 80% 30.09 in 2.0 mi NNW 6.9 mph - 0.00 in Snow Light Snow
10:53 AM 28.0 °F 20.0 °F 23.0 °F 81% 30.11 in 2.0 mi North 8.1 mph - 0.00 in Snow Light Snow
11:06 AM 28.4 °F 21.2 °F 24.8 °F 86% 30.09 in 2.0 mi North 6.9 mph - 0.00 in Snow Light Snow
11:53 AM 28.9 °F 21.9 °F 24.1 °F 82% 30.12 in 2.5 mi NNE 6.9 mph - 0.00 in Snow Light Snow
12:05 PM 30.2 °F 22.6 °F 23.0 °F 75% 30.10 in 4.0 mi North 8.1 mph - 0.00 in Snow Light Snow
12:32 PM 30.2 °F 21.3 °F 21.2 °F 69% 30.10 in 10.0 mi NNW 10.4 mph 19.6 mph 0.00 in   Overcast
12:40 PM 30.2 °F 19.8 °F 21.2 °F 69% 30.09 in 10.0 mi NNW 13.8 mph - 0.00 in   Overcast
12:51 PM 28.4 °F 19.7 °F 19.4 °F 69% 30.09 in 10.0 mi North 9.2 mph - 0.00 in   Overcast
12:53 PM 28.9 °F 19.2 °F 19.9 °F 69% 30.10 in 10.0 mi NNW 11.5 mph - 0.00 in   Overcast
1:50 PM 30.2 °F 23.4 °F 19.4 °F 64% 30.07 in 10.0 mi North 6.9 mph - 0.00 in   Overcast
1:53 PM 30.0 °F 22.4 °F 19.9 °F 66% 30.08 in 10.0 mi North 8.1 mph - 0.00 in   Overcast
2:27 PM 30.2 °F 21.9 °F 19.4 °F 64% 30.07 in 10.0 mi NNW 9.2 mph - N/A   Overcast
2:53 PM 28.9 °F 22.8 °F 21.0 °F 72% 30.09 in 10.0 mi North 5.8 mph - N/A   Overcast
3:53 PM 28.9 °F 19.8 °F 21.0 °F 72% 30.09 in 10.0 mi North 10.4 mph - N/A   Overcast
4:22 PM 28.4 °F 20.4 °F 21.2 °F 74% 30.08 in 7.0 mi North 8.1 mph - 0.00 in Snow Light Snow
4:29 PM 28.4 °F 22.2 °F 21.2 °F 74% 30.08 in 8.0 mi NNW 5.8 mph - 0.00 in   Overcast
4:53 PM 28.9 °F 22.8 °F 19.9 °F 69% 30.09 in 10.0 mi NNW 5.8 mph - 0.00 in   Overcast
5:53 PM 28.9 °F 23.9 °F 18.0 °F 64% 30.11 in 10.0 mi North 4.6 mph - N/A   Overcast
6:53 PM 28.9 °F 22.8 °F 19.9 °F 69% 30.12 in 10.0 mi WNW 5.8 mph - N/A   Overcast
7:53 PM 28.4 °F 21.2 °F 19.4 °F 69% 30.11 in 10.0 mi NW 6.9 mph - N/A   Overcast
8:53 PM 28.0 °F 24.2 °F 19.9 °F 72% 30.12 in 10.0 mi NW 3.5 mph - N/A   Overcast
9:53 PM 28.9 °F - 19.0 °F 67% 30.12 in 10.0 mi Calm Calm - N/A   Overcast
10:53 PM 28.9 °F 25.2 °F 19.0 °F 67% 30.11 in 10.0 mi WNW 3.5 mph - N/A   Overcast
11:53 PM 28.9 °F 22.8 °F 19.9 °F 69% 30.10 in 10.0 mi West 5.8 mph - N/A   Overcast